Location: De Har
(53.3413°N, 6.6858°E)
Time: 17:37:40
(UTC+00:00)

SL-14 R/B - Pass Details

Date: 22 April 2026
Orbit: 496 x 525 km, 82.4° (Epoch: 9 May)

Event Time Altitude Azimuth Distance (km) Brightness Sun altitude
Rises 03:04:14 0° 172° (S) 2,650 6.5 -10.4°
Reaches altitude 10° 03:06:26 10° 165° (SSE) 1,767 5.7 -10.2°
Maximum altitude 03:10:07 42° 94° (E) 758 4.5 -9.7°
Drops below altitude 10° 03:13:49 10° 23° (NNE) 1,778 6.9 -9.3°
Sets 03:16:02 0° 17° (NNE) 2,670 7.7 -9.0°
